STARLINK-30566, 58054

Orbit data source: Space-Track

STARLINK-30566, 58054 is a payload satellite owned by SpaceX/Seattle (US) in LEO that was launched on Fri, 13 Oct 2023 UTC via an FALCON 9 launch vehicle from the Air Force Eastern Test Range (AFETR). Payload-class satellites include a variety of spacecraft equipped with specific instruments for various scientific and technological missions. These include communications satellites like Starlink; space stations such as the ISS; scientific satellites like the Hubble; Earth observation satellites from companies like Planet Labs, Umbra, and HawkEye 360; GPS; miniature CubeSats for education and research; and military/defense satellites.

Loading next visibility...
Identifier
58054, 2023-158D
Orbit
LEO
Country
Flag of USUS
Related business
Manufacturer
SpaceX/Seattle
Mission
Operational Commercial Communications
Bus & Motor
STARLINK V2M, Unknown motor
Mass
730 kg wet, ~700 kg dry
Launch date (UTC)
2023-10-13 (3 years ago)
Launch vehicle
FALCON 9
Launch site
Air Force Eastern Test Range (AFETR)
Object type
Payload
Rocket body
Debris
Shape & HBR
Box + 2 Pan, 17.7 m
Radar Cross Section
33.884 m², Large (>1 m²)

Expand to show TLE details & history
Last TLE update: 2 days ago

TLE from 2 days ago
0 STARLINK-30566
1 58054U 23158D   26171.03083738 -.00037381  00000-0 -13560-2 0  9991
2 58054  42.9985 168.9185 0001737 157.4084 202.6844 15.27571048149220
Epoch: 2026-06-20T00:44Z
TLE epoch observation values (Epoch: 2026-06-20T00:44:24.349Z)
Latitude
-0.00005°
Longitude
-110.43431°
Altitude
483.951 km
Speed
7.625 km/s
True Right ascension
11h 15m 40s
True Declination
0° 00' 00"
Sunlit
Object was in daylight at epoch
Visualization orbit readout
Latitude
Unknown
Longitude
Unknown
Altitude
Unknown
Speed
Unknown
Apparent Right ascension
Unknown
Apparent Declination
Unknown
Sunlit
N/A
Visualization observer readout
Local Sidereal Time
21:32:12
Azimuth
Unknown
Elevation
Unknown
Doppler factor
Unknown
Orbital elements
Apogee altitude
486.213 km
Perigee altitude
483.829 km
Semi-major axis
6,863.158 km
Eccentricity
0.00017
Inclination
42.9985°
RAAN
168.9185°
Arg. of periapsis
157.4084°
True anomaly
202.67673°
Mean anomaly
202.6844°
Eccentric anomaly
202.68056°
Mean motion
3.81731 °/min
Orbital period
94.31 mins
BSTAR
-0.001356
Loading maneuver chart data...
Computing Atmospheric mass density...
Loading historical data...
Loading historical data...
Loading historical data...
Loading historical data...
Loading historical data...
Loading historical data...
Loading historical data...

Documentation

Showing up to 5 results
|